FW6692 Weather Reports


time (UTC)temp
C
wind
direction
speed
KPH
gust
KPH
rain 1hr
cm
rain 24hr
cm
rain mn
cm
humidity
%
barometer
mb
20260906230054 33 165 8.0 22.5 0.00 0.00 0.00 50 1017.8
20260906224604 34 138 3.2 11.3 0.00 0.00 0.00 49 1017.8
20260906223105 33 0 4.8 14.5 0.00 0.00 0.00 50 1017.8
20260906221602 33 153 9.7 24.1 0.00 0.00 0.00 50 1018.2
20260906220051 34 136 8.0 16.1 0.00 0.00 0.00 50 1018.3
20260906214551 35 228 0.0 11.3 0.00 0.00 0.00 49 1018.2
20260906213056 33 167 4.8 19.3 0.00 0.00 0.00 53 1018.4
20260906211554 33 126 6.4 20.9 0.00 0.00 0.00 54 1018.6
20260906210110 33 217 6.4 14.5 0.00 0.00 0.00 53 1018.9
20260906204553 33 148 11.3 22.5 0.00 0.00 0.00 53 1019.1
20260906203050 33 84 1.6 19.3 0.00 0.00 0.00 52 1019.3
20260906201620 32 115 6.4 25.7 0.00 0.00 0.00 53 1019.4
20260906200055 33 161 8.0 24.1 0.00 0.00 0.00 53 1019.7
20260906194603 32 194 8.0 24.1 0.00 0.00 0.00 55 1020.0
20260906193051 32 131 9.7 19.3 0.00 0.00 0.00 57 1020.0
20260906191605 32 126 8.0 20.9 0.00 0.00 0.00 59 1020.2
20260906190048 31 168 4.8 24.1 0.00 0.00 0.00 61 1020.4
20260906184558 32 178 3.2 12.9 0.00 0.00 0.00 58 1020.5
20260906183055 31 154 4.8 12.9 0.00 0.00 0.00 61 1020.7
20260906181601 31 0 3.2 11.3 0.00 0.00 0.00 61 1021.0
20260906180100 29 224 1.6 9.7 0.00 0.00 0.00 70 1021.4
20260906174553 27 191 0.0 11.3 0.00 0.00 0.00 76 1021.4
20260906173051 27 175 6.4 16.1 0.00 0.00 0.00 79 1021.8
20260906171601 27 142 8.0 16.1 0.00 0.00 0.00 76 1022.3
20260906170054 27 180 9.7 14.5 0.00 0.00 0.00 74 1022.6
20260906164552 27 158 6.4 14.5 0.00 0.00 0.00 76 1022.5
20260906163058 27 147 9.7 16.1 0.00 0.00 0.00 76 1022.4
20260906161553 27 135 8.0 14.5 0.00 0.00 0.00 75 1022.4
20260906160057 26 159 9.7 16.1 0.00 0.00 0.00 78 1022.2
20260906154555 26 135 8.0 17.7 0.00 0.00 0.00 81 1022.1
20260906153054 25 126 11.3 14.5 0.00 0.00 0.00 83 1022.1
20260906151549 25 123 6.4 11.3 0.00 0.00 0.00 83 1021.8
20260906150057 26 157 6.4 14.5 0.00 0.00 0.00 82 1021.8
20260906144557 26 148 8.0 16.1 0.00 0.00 0.00 80 1021.5
20260906143054 27 136 6.4 11.3 0.00 0.00 0.00 75 1021.4
20260906141551 26 0 0.0 4.8 0.00 0.00 0.00 76 1021.2
20260906140100 26 33 0.0 4.8 0.00 0.00 0.00 77 1021.0
20260906134605 25 151 1.6 4.8 0.00 0.00 0.00 86 1021.0
20260906133057 23 0 0.0 0.0 0.00 0.00 0.00 89 1020.8
20260906131550 22 0 0.0 3.2 0.00 0.00 0.00 90 1020.8
20260906130106 22 151 1.6 4.8 0.00 0.00 0.00 90 1020.6
20260906124555 22 0 0.0 3.2 0.00 0.00 0.00 89 1020.5
20260906123054 22 0 0.0 0.0 0.00 0.00 0.00 89 1020.2
20260906121605 22 0 0.0 0.0 0.00 0.00 0.00 89 1020.1
20260906120052 22 0 0.0 0.0 0.00 0.00 0.00 87 1019.7
20260906114609 22 0 0.0 0.0 0.00 0.00 0.00 88 1019.2
20260906113103 22 0 0.0 0.0 0.00 0.00 0.00 88 1019.3
20260906111549 22 0 0.0 0.0 0.00 0.00 0.00 88 1019.3
20260906110050 22 0 0.0 0.0 0.00 0.00 0.00 87 1018.9
20260906104545 23 0 0.0 0.0 0.00 0.00 0.00 86 1018.7
20260906103054 23 0 0.0 0.0 0.00 0.00 0.00 84 1019.1
20260906101556 24 0 0.0 0.0 0.00 0.00 0.00 85 1018.9
20260906100050 24 0 0.0 0.0 0.00 0.00 0.00 85 1018.9
20260906094554 23 0 0.0 0.0 0.00 0.00 0.00 85 1018.9
20260906093055 23 0 0.0 0.0 0.00 0.00 0.00 84 1018.8
20260906091551 24 0 0.0 0.0 0.00 0.00 0.00 83 1018.9
20260906090052 24 0 0.0 0.0 0.00 0.00 0.00 83 1018.6
20260906084557 24 0 0.0 0.0 0.00 0.00 0.00 83 1018.5
20260906083051 24 0 0.0 0.0 0.00 0.00 0.00 82 1018.6
20260906081556 25 0 0.0 0.0 0.00 0.00 0.00 82 1018.6
20260906080051 25 0 0.0 0.0 0.00 0.00 0.00 82 1018.8
20260906074552 25 0 0.0 0.0 0.00 0.00 0.00 82 1018.9
20260906073051 25 0 0.0 4.8 0.00 0.00 0.00 81 1019.2
20260906071559 25 150 1.6 4.8 0.00 0.00 0.00 80 1019.2
20260906070053 25 0 0.0 0.0 0.00 0.00 0.00 80 1019.2
20260906064556 25 0 0.0 0.0 0.00 0.00 0.00 79 1019.4
20260906063056 25 0 0.0 0.0 0.00 0.00 0.00 79 1019.3
20260906061556 25 150 3.2 4.8 0.00 0.00 0.00 78 1019.6
20260906060128 26 150 3.2 4.8 0.00 0.00 0.00 77 1019.6
20260906054611 26 150 3.2 4.8 0.00 0.00 0.00 75 1019.6
20260906053055 26 150 3.2 8.0 0.00 0.00 0.00 74 1019.6
20260906051550 27 150 4.8 12.9 0.00 0.00 0.00 73 1019.7
20260906050105 27 120 11.3 16.1 0.00 0.00 0.00 72 1019.9
20260906044554 27 117 11.3 14.5 0.00 0.00 0.00 71 1019.8
20260906043057 27 133 8.0 16.1 0.00 0.00 0.00 70 1019.7
20260906041554 28 133 14.5 25.7 0.00 0.00 0.00 68 1019.7
20260906040052 28 136 14.5 20.9 0.00 0.00 0.00 68 1019.8
20260906034601 28 121 12.9 19.3 0.00 0.00 0.00 67 1019.5
20260906033055 28 123 11.3 16.1 0.00 0.00 0.00 67 1019.5
20260906031613 28 101 12.9 22.5 0.00 0.00 0.00 66 1019.3
20260906030101 29 98 16.1 29.0 0.00 0.00 0.00 64 1019.1
20260906024556 29 111 12.9 22.5 0.00 0.00 0.00 64 1018.8
20260906023108 29 99 8.0 12.9 0.00 0.00 0.00 62 1018.4
20260906021552 30 98 9.7 14.5 0.00 0.00 0.00 60 1017.9
20260906020056 30 112 11.3 17.7 0.00 0.00 0.00 58 1017.9
20260906014555 30 86 4.8 9.7 0.00 0.00 0.00 56 1017.8
20260906013054 30 138 0.0 3.2 0.00 0.00 0.00 55 1017.5
20260906011556 31 138 3.2 4.8 0.00 0.00 0.00 55 1017.3
20260906010104 31 128 6.4 12.9 0.00 0.00 0.00 53 1017.2
20260906004558 32 124 6.4 14.5 0.00 0.00 0.00 50 1017.1
20260906003052 33 133 12.9 19.3 0.00 0.00 0.00 49 1017.2
20260906001549 33 127 14.5 20.9 0.00 0.00 0.00 48 1017.1
20260906000108 33 112 16.1 25.7 0.00 0.00 0.00 47 1017.2
20260905234556 34 132 14.5 22.5 0.00 0.00 0.00 47 1016.8
20260905233056 34 140 17.7 25.7 0.00 0.00 0.00 47 1017.0
20260905231550 34 127 19.3 29.0 0.00 0.00 0.00 46 1017.0